Wetterdaten am Flugplatz MSG Übersee

alte Datensätze gelöscht
88 aktuelle Wetterdateneinträge gefunden

Datum/Uhrzeit   Windrichtung/Grad    Geschw./kmh    Temp./C°    Luftdruck/mbar    Spannung/Volt   
2024-06-13 00:00 S/201 0 14 1020 12,23
2024-06-13 00:11 S/201 0 14 1020 12,26
2024-06-13 00:21 S/201 0 14 1020 12,30
2024-06-13 00:31 S/201 0 13 1020 12,32
2024-06-13 00:41 S/201 0 13 1020 12,33
2024-06-13 00:51 S/201 1 13 1020 12,36
2024-06-13 01:01 S/201 0 13 1020 12,38
2024-06-13 01:11 S/201 0 13 1020 12,39
2024-06-13 01:21 S/201 7 13 1020 12,40
2024-06-13 01:31 S/201 16 13 1020 12,42
2024-06-13 01:41 SW/204 17 13 1020 12,43
2024-06-13 01:51 SW/209 17 13 1020 12,05
2024-06-13 02:01 SW/207 22 13 1020 12,20
2024-06-13 02:11 SW/213 21 13 1020 12,24
2024-06-13 02:21 S/201 21 13 1020 12,27
2024-06-13 02:31 S/202 19 13 1020 12,29
2024-06-13 02:41 S/197 20 13 1020 12,30
2024-06-13 02:51 S/201 20 13 1019 12,32
2024-06-13 03:01 SW/207 19 13 1020 12,33
2024-06-13 03:11 SW/207 19 13 1020 12,36
2024-06-13 03:21 SW/217 21 13 1020 12,36
2024-06-13 03:32 SW/223 20 13 1020 12,39
2024-06-13 03:42 SW/219 17 13 1020 12,40
2024-06-13 03:52 SW/225 12 12 1020 11,98
2024-06-13 04:02 SW/224 6 12 1020 12,17
2024-06-13 04:12 SW/226 13 12 1020 12,20
2024-06-13 04:22 SW/227 13 12 1020 12,21
2024-06-13 04:32 SW/223 7 12 1020 12,23
2024-06-13 04:42 SW/226 6 12 1020 12,24
2024-06-13 04:52 SW/223 9 12 1020 12,27
2024-06-13 05:02 SW/211 16 12 1020 12,29
2024-06-13 05:12 SW/203 15 12 1020 12,30
2024-06-13 05:22 SW/219 14 12 1020 12,32
2024-06-13 05:32 SW/217 16 12 1020 12,33
2024-06-13 05:42 SW/219 19 12 1020 11,95
2024-06-13 05:52 SW/218 14 12 1020 12,11
2024-06-13 06:02 SW/229 11 12 1020 12,14
2024-06-13 06:13 SW/231 7 12 1020 12,17
2024-06-13 06:23 SW/232 1 12 1020 12,18
2024-06-13 06:33 SW/228 5 12 1020 12,23
2024-06-13 06:43 SW/224 8 12 1020 12,24
2024-06-13 06:53 SW/208 18 12 1020 12,27
2024-06-13 07:03 SW/210 21 12 1020 12,30
2024-06-13 07:13 SW/212 24 12 1020 12,33
2024-06-13 07:23 SW/214 21 12 1020 12,36
2024-06-13 07:33 SW/218 23 12 1020 11,96
2024-06-13 07:43 SW/217 21 13 1020 12,20
2024-06-13 07:53 SW/211 19 13 1020 12,26
2024-06-13 08:03 SW/210 17 13 1020 12,33
2024-06-13 08:13 SW/211 18 13 1020 12,38
2024-06-13 08:23 SW/228 16 14 1020 12,45
2024-06-13 08:33 SW/220 15 14 1021 12,49
2024-06-13 08:43 SW/233 7 14 1021 12,60
2024-06-13 08:53 SW/203 6 15 1021 12,60
2024-06-13 09:03 W/284 3 16 1021 12,57
2024-06-13 09:14 NW/322 7 16 1021 12,57
2024-06-13 09:24 N/360 11 17 1021 12,57
2024-06-13 09:34 N/12 15 17 1020 12,60
2024-06-13 09:44 N/7 14 18 1020 12,61
2024-06-13 09:54 N/343 13 18 1020 12,17
2024-06-13 10:04 NW/329 12 18 1020 12,32
2024-06-13 10:14 N/340 15 18 1020 12,35
2024-06-13 10:24 N/340 18 19 1020 12,36
2024-06-13 10:34 NW/337 24 19 1020 12,39
2024-06-13 10:44 NW/335 23 19 1020 12,39
2024-06-13 10:54 NW/332 19 19 1021 12,40
2024-06-13 11:04 NW/324 14 19 1020 12,40
2024-06-13 11:14 N/360 14 20 1020 12,43
2024-06-13 11:24 N/350 13 20 1020 12,45
2024-06-13 11:34 N/344 15 20 1020 12,45
2024-06-13 11:45 N/358 12 21 1020 12,45
2024-06-13 11:55 N/351 11 21 1020 12,46
2024-06-13 12:05 N/15 17 21 1020 12,49
2024-06-13 12:15 N/5 28 21 1020 12,51
2024-06-13 12:25 N/4 31 21 1020 12,54
2024-06-13 12:35 NO/23 27 20 1020 12,13
2024-06-13 12:45 NO/36 22 20 1020 12,23
2024-06-13 12:55 NO/29 16 19 1020 12,27
2024-06-13 13:05 N/2 15 19 1020 12,29
2024-06-13 13:15 NW/314 8 19 1021 12,29
2024-06-13 13:25 SW/235 18 19 1021 12,30
2024-06-13 13:35 SW/222 22 18 1021 12,32
2024-06-13 13:45 SW/236 21 17 1021 12,33
2024-06-13 13:55 NW/302 9 17 1022 12,35
2024-06-13 14:06 W/266 5 16 1022 12,38
2024-06-13 14:16 SW/235 11 16 1022 12,38
2024-06-13 14:26 SW/209 21 15 1021 12,40
2024-06-13 14:36 S/183 19 15 1021 12,40